When you browse on this site, cookies collect data to enhance your experience and personalize the content and advertising you see.
Visit our Privacy Policy to learn more. By continuing to use the site, you agree to this use of cookies and data.

Meteo pe oră la Ciudad Bolívar

Astăzi, 11 August, Marţi

Timp Temperatura Precipitaţii Vânt Presiune Umiditate
00:00 +27°C° 0.3 mm 3 m/s 752 mmHg 89%
01:00 +27°C° 0.3 mm 3 m/s 751 mmHg 90%
02:00 +27°C° 0.3 mm 3 m/s 751 mmHg 90%
03:00 +26°C° 0.3 mm 3 m/s 751 mmHg 90%
04:00 +26°C° 0.3 mm 3 m/s 751 mmHg 91%
05:00 +26°C° 0.3 mm 2 m/s 751 mmHg 91%
06:00 +27°C° 0.2 mm 3 m/s 751 mmHg 88%
07:00 +27°C° 0.2 mm 4 m/s 752 mmHg 86%
08:00 +28°C° 0.2 mm 4 m/s 752 mmHg 84%
09:00 +29°C° 0.3 mm 4 m/s 752 mmHg 79%
10:00 +30°C° 0.3 mm 4 m/s 752 mmHg 75%
11:00 +33°C° 0.3 mm 4 m/s 752 mmHg 71%
12:00 +33°C° 0.3 mm 3 m/s 751 mmHg 69%
13:00 +34°C° 0.3 mm 3 m/s 750 mmHg 66%
14:00 +34°C° 0.3 mm 3 m/s 750 mmHg 64%
15:00 +34°C° 1.5 mm 3 m/s 749 mmHg 67%
16:00 +33°C° 1.5 mm 3 m/s 749 mmHg 71%
17:00 +31°C° 1.5 mm 3 m/s 748 mmHg 74%
18:00 +30°C° 0.9 mm 3 m/s 749 mmHg 78%
19:00 +29°C° 0.9 mm 4 m/s 749 mmHg 81%
20:00 +28°C° 0.9 mm 4 m/s 750 mmHg 85%
21:00 +28°C° 0.1 mm 4 m/s 750 mmHg 86%
22:00 +28°C° 0.1 mm 3 m/s 751 mmHg 87%
23:00 +27°C° 0.1 mm 3 m/s 752 mmHg 89%

Mâine, 12 August, Miercuri

Timp Temperatura Precipitaţii Vânt Presiune Umiditate
00:00 +27°C° 0.1 mm 3 m/s 751 mmHg 89%
01:00 +27°C° 0.1 mm 3 m/s 751 mmHg 90%
02:00 +27°C° 0.1 mm 3 m/s 750 mmHg 91%
03:00 +27°C° 0 mm 3 m/s 750 mmHg 91%
04:00 +26°C° 0 mm 2 m/s 750 mmHg 92%
05:00 +26°C° 0 mm 2 m/s 750 mmHg 93%
06:00 +27°C° 0 mm 2 m/s 751 mmHg 90%
07:00 +27°C° 0 mm 3 m/s 751 mmHg 88%
08:00 +28°C° 0 mm 3 m/s 752 mmHg 86%
09:00 +29°C° 0 mm 3 m/s 752 mmHg 79%
10:00 +31°C° 0 mm 3 m/s 752 mmHg 72%
11:00 +33°C° 0 mm 3 m/s 752 mmHg 64%
12:00 +34°C° 0 mm 3 m/s 751 mmHg 62%
13:00 +34°C° 0 mm 3 m/s 750 mmHg 60%
14:00 +35°C° 0 mm 3 m/s 749 mmHg 58%
15:00 +35°C° 0.1 mm 3 m/s 749 mmHg 59%
16:00 +34°C° 0.1 mm 3 m/s 748 mmHg 61%
17:00 +34°C° 0.1 mm 2 m/s 748 mmHg 62%
18:00 +33°C° 0.6 mm 3 m/s 748 mmHg 68%
19:00 +30°C° 0.6 mm 3 m/s 749 mmHg 74%
20:00 +29°C° 0.6 mm 4 m/s 750 mmHg 80%
21:00 +28°C° 0.2 mm 4 m/s 750 mmHg 83%
22:00 +28°C° 0.2 mm 4 m/s 751 mmHg 85%
23:00 +28°C° 0.2 mm 4 m/s 751 mmHg 88%

Poimâine, 13 August, Joi

Timp Temperatura Precipitaţii Vânt Presiune Umiditate
00:00 +27°C° 0 mm 4 m/s 751 mmHg 89%
01:00 +27°C° 0 mm 3 m/s 751 mmHg 91%
02:00 +27°C° 0 mm 3 m/s 750 mmHg 92%
03:00 +26°C° 0 mm 3 m/s 750 mmHg 93%
04:00 +26°C° 0 mm 2 m/s 750 mmHg 94%
05:00 +26°C° 0 mm 2 m/s 750 mmHg 95%
06:00 +27°C° 0 mm 3 m/s 751 mmHg 91%
07:00 +27°C° 0 mm 3 m/s 751 mmHg 88%
08:00 +28°C° 0 mm 4 m/s 752 mmHg 85%
09:00 +29°C° 0 mm 4 m/s 752 mmHg 77%
10:00 +32°C° 0 mm 4 m/s 751 mmHg 70%
11:00 +33°C° 0 mm 4 m/s 751 mmHg 62%
12:00 +34°C° 0 mm 3 m/s 750 mmHg 58%
13:00 +35°C° 0 mm 3 m/s 750 mmHg 54%
14:00 +36°C° 0 mm 3 m/s 749 mmHg 50%
15:00 +36°C° 0 mm 2 m/s 748 mmHg 52%
16:00 +35°C° 0 mm 2 m/s 748 mmHg 53%
17:00 +35°C° 0 mm 2 m/s 748 mmHg 54%
18:00 +34°C° 0.1 mm 3 m/s 748 mmHg 61%
19:00 +32°C° 0.1 mm 4 m/s 749 mmHg 68%
20:00 +29°C° 0.1 mm 4 m/s 750 mmHg 75%
21:00 +29°C° 0.1 mm 5 m/s 750 mmHg 78%
22:00 +28°C° 0.1 mm 5 m/s 750 mmHg 80%
23:00 +28°C° 0.1 mm 5 m/s 751 mmHg 83%

14 August, Vineri

Timp Temperatura Precipitaţii Vânt Presiune Umiditate
00:00 +28°C° 0.1 mm 4 m/s 750 mmHg 84%
01:00 +27°C° 0.1 mm 4 m/s 750 mmHg 86%
02:00 +27°C° 0.1 mm 3 m/s 750 mmHg 87%
03:00 +27°C° 0.1 mm 3 m/s 749 mmHg 88%
04:00 +27°C° 0.1 mm 3 m/s 749 mmHg 89%
05:00 +26°C° 0.1 mm 2 m/s 749 mmHg 90%
06:00 +27°C° 0 mm 3 m/s 750 mmHg 88%
07:00 +28°C° 0 mm 3 m/s 750 mmHg 87%
08:00 +28°C° 0 mm 3 m/s 751 mmHg 85%
09:00 +30°C° 0 mm 3 m/s 751 mmHg 78%
10:00 +31°C° 0 mm 3 m/s 751 mmHg 72%
11:00 +34°C° 0 mm 3 m/s 751 mmHg 66%
12:00 +34°C° 0.1 mm 3 m/s 750 mmHg 63%
13:00 +35°C° 0.1 mm 3 m/s 749 mmHg 60%
14:00 +36°C° 0.1 mm 3 m/s 748 mmHg 57%
15:00 +35°C° 0.3 mm 3 m/s 748 mmHg 59%
16:00 +35°C° 0.3 mm 3 m/s 748 mmHg 61%
17:00 +34°C° 0.3 mm 4 m/s 748 mmHg 63%
18:00 +33°C° 0 mm 4 m/s 748 mmHg 67%
19:00 +32°C° 0 mm 4 m/s 749 mmHg 71%
20:00 +29°C° 0 mm 4 m/s 749 mmHg 75%
21:00 +29°C° 0 mm 4 m/s 750 mmHg 78%
22:00 +29°C° 0 mm 3 m/s 750 mmHg 80%
23:00 +28°C° 0 mm 3 m/s 750 mmHg 82%

15 August, Sâmbătă

Timp Temperatura Precipitaţii Vânt Presiune Umiditate
00:00 +28°C° 0.1 mm 3 m/s 750 mmHg 84%
01:00 +28°C° 0.1 mm 3 m/s 750 mmHg 85%
02:00 +28°C° 0.1 mm 3 m/s 749 mmHg 87%
03:00 +27°C° 0.2 mm 2 m/s 749 mmHg 88%
04:00 +27°C° 0.2 mm 2 m/s 749 mmHg 90%
05:00 +27°C° 0.2 mm 2 m/s 749 mmHg 91%
06:00 +27°C° 0 mm 2 m/s 750 mmHg 88%
07:00 +28°C° 0 mm 3 m/s 750 mmHg 85%
08:00 +29°C° 0 mm 3 m/s 751 mmHg 81%
09:00 +30°C° 0 mm 4 m/s 751 mmHg 75%
10:00 +33°C° 0 mm 4 m/s 751 mmHg 68%
11:00 +34°C° 0 mm 4 m/s 751 mmHg 61%
12:00 +35°C° 0 mm 4 m/s 750 mmHg 57%
13:00 +36°C° 0 mm 4 m/s 749 mmHg 54%
14:00 +37°C° 0 mm 3 m/s 748 mmHg 50%
15:00 +36°C° 0 mm 3 m/s 748 mmHg 52%
16:00 +36°C° 0 mm 2 m/s 748 mmHg 54%
17:00 +36°C° 0 mm 2 m/s 747 mmHg 56%
18:00 +34°C° 0.8 mm 3 m/s 748 mmHg 64%
19:00 +32°C° 0.8 mm 4 m/s 749 mmHg 71%
20:00 +29°C° 0.8 mm 5 m/s 749 mmHg 79%
21:00 +29°C° 0.1 mm 4 m/s 750 mmHg 81%
22:00 +28°C° 0.1 mm 4 m/s 750 mmHg 84%
23:00 +28°C° 0.1 mm 3 m/s 751 mmHg 86%

16 August, Duminică

Timp Temperatura Precipitaţii Vânt Presiune Umiditate
00:00 +28°C° 0 mm 3 m/s 750 mmHg 87%
01:00 +27°C° 0 mm 3 m/s 750 mmHg 88%
02:00 +27°C° 0 mm 3 m/s 749 mmHg 90%
03:00 +27°C° 0 mm 3 m/s 749 mmHg 90%
04:00 +26°C° 0 mm 2 m/s 749 mmHg 91%
05:00 +26°C° 0 mm 2 m/s 749 mmHg 92%
06:00 +27°C° 0 mm 3 m/s 750 mmHg 88%
07:00 +28°C° 0 mm 3 m/s 750 mmHg 84%
08:00 +29°C° 0 mm 4 m/s 751 mmHg 81%
09:00 +30°C° 0 mm 4 m/s 751 mmHg 76%
10:00 +32°C° 0 mm 4 m/s 751 mmHg 70%
11:00 +33°C° 0 mm 4 m/s 751 mmHg 65%
12:00 +33°C° 0 mm 4 m/s 750 mmHg 64%
13:00 +33°C° 0 mm 4 m/s 749 mmHg 62%
14:00 +34°C° 0 mm 4 m/s 748 mmHg 61%
15:00 +33°C° 0 mm 4 m/s 748 mmHg 62%
16:00 +33°C° 0 mm 4 m/s 747 mmHg 62%
17:00 +33°C° 0 mm 4 m/s 747 mmHg 62%
18:00 +31°C° 0.1 mm 3 m/s 748 mmHg 67%
19:00 +30°C° 0.1 mm 3 m/s 748 mmHg 71%
20:00 +29°C° 0.1 mm 2 m/s 749 mmHg 75%
21:00 +29°C° 0.5 mm 3 m/s 749 mmHg 79%
22:00 +28°C° 0.5 mm 3 m/s 750 mmHg 82%
23:00 +28°C° 0.5 mm 4 m/s 750 mmHg 86%
Arată mai mult